Tracking 28790 objects as of 19-Apr-2024
HD Live streaming from Space Station
objects crossing your sky now

NAVSTAR 27 (USA 84)

Track NAVSTAR 27 (USA 84) now!
NAVSTAR 27 (USA 84) is classified as:


NORAD ID: 22108
Int'l Code: 1992-058A
Perigee: 21,360.4 km
Apogee: 21,445.7 km
Inclination: 54.7 °
Period: 767.7 minutes
Semi major axis: 27774 km
RCS: 3.0849 m2 (large)
Launch date: September 9, 1992
Source: United States (US)
Launch site: AIR FORCE EASTERN TEST RANGE (AFETR)
Your satellite tracking list
Your tracking list is empty




NASA's NSSDC Master Catalog

Two Line Element Set (TLE):
1 22108U 92058A   24109.63122218 -.00000027  00000-0  00000-0 0  9998
2 22108  54.6665 193.7361 0015362  32.5423 327.5888  1.87561707228211
Source of the keplerian elements: AFSPC